Riverbend Golf Club, California, United States
Lat: 36.93N, Lon: 119.76W
Wx Zone: CAZ090
Local Info
Past Weather Observations for Today

NOTE: This archive is for the closest National Weather Service station to Riverbend Golf Club. Information may differ from the station used for current weather conditions.

Click here for Long-term Archive

Time Weather Temperature Dewpoint Humidity Pressure Winds Precip Visibility
19:53
Partly Cloudy
95°F / 35°C 48°F / 9°C 20% 29.86 in
(1011 mb)
NW 11.5 mph
(NW 19 kph)
- 10SM
18:53
Mostly Cloudy
99°F / 37°C 46°F / 8°C 17% 29.83 in
(1010 mb)
NW 15 mph
(NW 24 kph)
- 10SM
17:53
Partly Cloudy
104°F / 40°C 45°F / 7°C 13% 29.83 in
(1010 mb)
NW 13.8 mph
(NW 22 kph)
- 10SM
16:53
Partly Cloudy
106°F / 41°C 45°F / 7°C 13% 29.83 in
(1010 mb)
NW 13.8 mph
(NW 22 kph)
- 10SM
15:53
Partly Cloudy
108°F / 42°C 43°F / 6°C 11% 29.83 in
(1010 mb)
NW 10.4 mph
(NW 17 kph)
- 10SM
14:53
Mostly Cloudy
106°F / 41°C 45°F / 7°C 13% 29.86 in
(1011 mb)
NW 9.2 mph
(NW 15 kph)
- 10SM
13:53
Mostly Cloudy
106°F / 41°C 46°F / 8°C 13% 29.89 in
(1012 mb)
Variable 5.8 mph
(Variable 9 kph)
- 10SM
12:53
Partly Cloudy
102°F / 39°C 46°F / 8°C 15% 29.89 in
(1012 mb)
Variable 3.5 mph
(Variable 6 kph)
- 10SM
11:53
Partly Cloudy
99°F / 37°C 52°F / 11°C 21% 29.92 in
(1013 mb)
Calm - 10SM
10:53
Mostly Cloudy
93°F / 34°C 54°F / 12°C 26% 29.92 in
(1013 mb)
SW 3.5 mph
(SW 6 kph)
- 10SM
09:53
Mostly Cloudy
90°F / 32°C 57°F / 14°C 33% 29.95 in
(1014 mb)
SE 8.1 mph
(SE 13 kph)
- 10SM
08:53
Partly Cloudy
88°F / 31°C 57°F / 14°C 35% 29.95 in
(1014 mb)
SSE 5.8 mph
(SSE 9 kph)
- 10SM
07:53
Partly Cloudy
86°F / 30°C 54°F / 12°C 33% 29.95 in
(1014 mb)
SE 8.1 mph
(SE 13 kph)
- 10SM
06:53
Partly Cloudy
82°F / 28°C 54°F / 12°C 37% 29.95 in
(1014 mb)
SE 6.9 mph
(SE 11 kph)
- 10SM
05:53
Mostly Cloudy
79°F / 26°C 52°F / 11°C 39% 29.92 in
(1013 mb)
ENE 3.5 mph
(ENE 6 kph)
- 10SM
04:53
Mostly Cloudy
79°F / 26°C 48°F / 9°C 34% 29.92 in
(1013 mb)
NE 3.5 mph
(NE 6 kph)
- 10SM
03:53
Mostly Cloudy
81°F / 27°C 48°F / 9°C 32% 29.92 in
(1013 mb)
Calm - 10SM
02:53
Mostly Cloudy
81°F / 27°C 46°F / 8°C 30% 29.89 in
(1012 mb)
N 3.5 mph
(N 6 kph)
- 10SM
01:53
Mostly Cloudy
82°F / 28°C 48°F / 9°C 30% 29.89 in
(1012 mb)
NW 8.1 mph
(NW 13 kph)
- 10SM
00:53
Mostly Cloudy
82°F / 28°C 52°F / 11°C 35% 29.89 in
(1012 mb)
NW 6.9 mph
(NW 11 kph)
- 10SM
Time Weather Temperature Dewpoint Humidity Pressure Winds Precip Visibility


Weather for websites

WeatherForYou.com, LLC is not responsible for any damages or problems caused by this service. Current weather conditions are obtained from the closest station including government and personal stations which may have varying degrees of accuracy. Weather forecasts are derived from the NOAA NDFD. Like all things, this site belongs to Jesus Christ... He just trusts me to maintain it. If you have any questions or comments email webmaster@weatherforyou.com

Copyright © 2014, WeatherForYou.com LLC. All rights reserved.